Location: Borea
(45.6167°N, 23.0167°E)
Time: 01:26:07
(UTC+00:00)

OPS 8068 - Pass Details

Date: 24 February 2024
Orbit: 631 x 963 km, 98.3° (Epoch: 13 April)

Event Time Altitude Azimuth Distance (km) Brightness Sun altitude
Rises 03:56:50 0° 194° (SSW) 2,909 ? -14.6°
Reaches altitude 10° 03:59:15 10° 206° (SSW) 2,013 ? -14.2°
Maximum altitude 04:02:59 27° 265° (W) 1,229 ? -13.6°
Drops below altitude 10° 04:06:52 10° 324° (NW) 2,101 ? -12.9°
Sets 04:09:27 0° 337° (NNW) 3,062 ? -12.4°
